パンスターズ彗星

C/2021 A6 ( PanSTARRS )

English version
Home page
Updated on January 20, 2022

---------------------------------------------------------------------

・ プロフィール

発見日 2021年1月8日
発見光度 20.8等
発見者 Pan-STARRS 1 telescope (Haleakala)

・ 写真集

・ 軌道要素

Epoch 2022 Jan. 21.0 TT = JDT 2459600.5
T 2021 May 4.22386 TT                                   Rudenko
q   7.9286044            (2000.0)            P               Q
z  +0.0000937      Peri.  351.69823     -0.94172341     -0.20629746
 +/-0.0000018      Node   164.07925     +0.33632299     -0.56186965
e   0.9992574      Incl.   75.61168     -0.00662282     +0.80108917
From 101 observations 2020 Nov. 26-2021 Dec. 29, mean residual 0".5.

・ 光度変化

        m1 = 6.0 + 5 logΔ + 10.0 log r

---------------------------------------------------------------------

軌道要素はM.P.E.C. 2022-A21に掲載されたものです。
光度グラフはComet for Windowsで作成したものです。

---------------------------------------------------------------------

Copyright(C) Seiichi Yoshida (comet@aerith.net). All rights reserved.